NKS9909 KFRG-KLGA

Flight info

Callsign NKS9909
Flight time N/A
Altitude 12000
Route JAMCA YNKEE APPLE/N0338F110 PACHU SHAYY GACAR DRRYL KEYTH DCTRK
Aircraft A321/M-SDE3FGHIRWY/LB1

Departure

Time 2026-04-21 14:28
Airport Republic Airport (KFRG)

Arrival

Time N/A
Airport LaGuardia Airport (KLGA)
Time Latitude Longitude Altitude Speed Heading
2026-04-21 14:25 40.73436 -73.42134 79 ft 0 kts 133°
2026-04-21 14:28 40.73436 -73.42133 80 ft 1 kts 133°
2026-04-21 14:28 40.73207 -73.41803 78 ft 93 kts 132°
2026-04-21 14:28 40.72592 -73.40903 86 ft 164 kts 130°
2026-04-21 14:28 40.71798 -73.39721 702 ft 177 kts 130°
2026-04-21 14:29 40.70969 -73.38513 1515 ft 186 kts 130°
2026-04-21 14:29 40.70071 -73.37217 2201 ft 197 kts 131°
2026-04-21 14:29 40.69125 -73.35844 2538 ft 212 kts 131°
2026-04-21 14:29 40.68002 -73.34415 2786 ft 235 kts 148°
2026-04-21 14:30 40.66382 -73.33910 3115 ft 254 kts 187°
2026-04-21 14:30 40.64758 -73.34861 3662 ft 262 kts 224°
2026-04-21 14:30 40.63760 -73.36802 4421 ft 261 kts 245°
2026-04-21 14:30 40.62941 -73.38950 5174 ft 264 kts 245°
2026-04-21 14:31 40.62051 -73.41058 5903 ft 267 kts 242°
2026-04-21 14:31 40.61079 -73.43117 6629 ft 269 kts 240°
2026-04-21 14:31 40.60038 -73.45164 7344 ft 272 kts 240°
2026-04-21 14:31 40.59019 -73.47089 8005 ft 274 kts 239°
2026-04-21 14:32 40.57907 -73.49142 8697 ft 277 kts 239°
2026-04-21 14:32 40.56779 -73.51196 9367 ft 279 kts 239°
2026-04-21 14:32 40.55631 -73.53275 10005 ft 282 kts 240°
2026-04-21 14:32 40.54469 -73.55376 10507 ft 290 kts 240°
2026-04-21 14:33 40.54194 -73.55874 10574 ft 294 kts 240°